Flag for Germany Weather past 2 weeks in Forchheim, Bavaria, Germany

Now
44 °F

Overcast.


Feels Like: 44 °F
Forecast: 48 / 71 °F
Wind: 1 mph from Southeast

Location: Bamberg

Current Time: May 23, 2015 at 2:05:12 AM

Latest Report: May 23, 2015 at 1:00 AM


Visibility: 22 mi

Pressure: 30.21 "Hg

Humidity: 83%

Dew point: 39 °F

Location of ForchheimLocation

Historic Weather in Forchheim — Graph

°F

Forchheim temperature yesterday

Maximum temperature yesterday: 67 °F (at 7:00 PM)
Minimum temperature yesterday: 34 °F (at 6:00 AM)
Average temperature yesterday: 53 °F

Past Weeks' High & Low Weather Summary

 TemperatureHumidityPressure
High85 °F (May 12, 4:00 PM)96% (May 10, 7:00 AM)30.38 "Hg (May 10, 7:00 AM)
Low34 °F (May 22, 6:00 AM)24% (May 14, 6:00 PM)29.70 "Hg (May 18, 8:00 PM)
Average57 °F62%30.07 "Hg
* Reported May 8 1:00 AM — May 23 1:00 AM, Forchheim, Weather by CustomWeather, © 2015

Note: Actual official high and low records may vary slightly from our data, if they occured in-between our weather recording intervals... More about our weather records

Advertising

Forchheim weather history for previous 24 hours

 ConditionsComfort  
Time TempWeatherWind HumidityBarometerVisibility
1:00 AM
Sat, May 23
44 °FOvercast.1 mph83%30.21 "Hg22 mi
12:00 AM47 °FOvercast.1 mph75%30.21 "Hg25 mi
11:00 PM
Fri, May 22
50 °FOvercast.1 mph67%30.20 "Hg22 mi
10:00 PM50 °FOvercast.No wind66%30.19 "Hg37 mi
9:00 PM61 °FOvercast.1 mph44%30.16 "Hg43 mi
8:00 PM65 °FOvercast.3 mph33%30.15 "Hg43 mi
7:00 PM67 °FOvercast.1 mph27%30.15 "Hg43 mi
6:00 PM65 °FOvercast.5 mph31%30.17 "Hg34 mi
5:00 PM66 °FOvercast.5 mph29%30.18 "Hg40 mi
4:00 PM66 °FOvercast.6 mph30%30.20 "Hg28 mi
3:00 PM65 °FOvercast.3 mph28%30.22 "Hg43 mi
2:00 PM64 °FOvercast.3 mph31%30.24 "Hg37 mi
1:00 PM63 °FPartly sunny.2 mph32%30.27 "Hg37 mi
12:00 PM62 °FScattered clouds.5 mph32%30.29 "Hg43 mi
11:00 AM60 °FSunny.3 mph37%30.31 "Hg22 mi
10:00 AM57 °FSunny.2 mph47%30.32 "Hg28 mi
9:00 AM51 °FSunny.2 mph59%30.34 "Hg19 mi
8:00 AM46 °FSunny.2 mph67%30.35 "Hg17 mi
7:00 AM39 °FSunny.1 mph84%30.37 "Hg17 mi
6:00 AM34 °FSunny.1 mph87%30.37 "Hg22 mi
5:00 AM34 °FClear.1 mph88%30.37 "Hg22 mi
4:00 AM35 °FClear.1 mph89%30.38 "Hg25 mi
3:00 AM37 °FClear.1 mph90%30.37 "Hg22 mi
2:00 AM39 °FClear.1 mph80%30.36 "Hg37 mi
Weather by CustomWeather, © 2015

See weather overviewHow to use our weather pages